Tracking 19795 objects as of 17-Jul-2019
HD Live streaming from Space Station
objects crossing your sky now

FLOCK 2K 24

Track FLOCK 2K 24 now!
10-day predictions
FLOCK 2K 24 is classified as:


NORAD ID: 42857
Int'l Code: 2017-042AJ
Perigee: 445.4 km
Apogee: 460.6 km
Inclination: 96.9 °
Period: 93.5 minutes
Semi major axis: 6823 km
RCS: Unknown
Launch date: July 14, 2017
Source: United States (US)
Launch site: TYURATAM MISSILE AND SPACE COMPLEX (TTMTR)
aabbcc
Your satellite tracking list
Your tracking list is empty




NASA's NSSDC Master Catalog

Two Line Element Set (TLE):
1 42857U 17042AJ  19198.74229611  .00003416  00000-0  87146-4 0  9994
2 42857  96.9356  79.8593 0011083 109.1873 251.0574 15.40086365112432
Source of the keplerian elements: AFSPC